Tracking 29892 objects as of 21-Nov-2024
HD Live streaming from Space Station
objects crossing your sky now

STARLINK-31630

Track STARLINK-31630 now!
10-day predictions
STARLINK-31630 is classified as:


NORAD ID: 59271
Int'l Code: 2024-050T
Perigee: 453.4 km
Apogee: 455.4 km
Inclination: 53.2 °
Period: 93.5 minutes
Semi major axis: 6825 km
RCS: Unknown
Launch date: March 19, 2024
Source: United States (US)
Launch site: AIR FORCE WESTERN TEST RANGE (AFWTR)
Your satellite tracking list
Your tracking list is empty




NASA's NSSDC Master Catalog

Two Line Element Set (TLE):
1 59271U 24050T   24325.09245304  .00000407  00000-0  20158-4 0  9999
2 59271  53.1599 218.4733 0001416  89.3832 270.7335 15.39613073 37983
Source of the keplerian elements: AFSPC